Seattle, WA
on Wednesday, January 16, 2013

Wednesday
Previous Day Next Day
Daily Summary
 ActualAverageRecord
Temperature
Mean Temperature °F 42°F  
Max Temperature 43°F 47°F 55°F (2011)
Min Temperature 25°F 37°F 13°F (1950)
Degree Days
Heating Degree Days 31 23  
Month to date heating degree days 437 376  
Since 1 July heating degree days 2188 2314  
Cooling Degree Days 0 0  
Month to date cooling degree days 0 0  
Year to date cooling degree days 0 0  
Moisture
Dew Point 28°F   
Average Humidity 77    
Maximum Humidity 92    
Minimum Humidity 62    
Precipitation
Precipitation 0.00 in 0.20 in 1.78 in (1958)
Month to date precipitation 2.71 3.03  
Year to date precipitation 2.71 3.03  
Snow
Snow 0.00 in in 3.50 in (1954)
Month to date snowfall T  
Since 1 July snowfall 0.6  
Snow Depth 0.00 in   
Wind
Wind Speed 4 mph   
Max Wind Speed 10 mph   
Max Gust Speed 12 mph   
Visibility 5 miles   
Events Fog   

Key: T is trace of precipitation, MM is missing value
Source: NWS Daily Summary
Time(PST)TemperatureDew PointHumidity Pressure Visibility Wind DirectionWind SpeedGust SpeedPrecipitationEvents Conditions
12:53 AM 30.0°F 27.0°F 88% 30.69 in 9.0 miles NNE 6.9 mph - N/A   Clear
1:49 AM 30.2°F 28.4°F 93% 30.66 in 6.0 miles NNE 4.6 mph - N/A   Partly Cloudy
1:53 AM 30.9°F 28.0°F 89% 30.69 in 5.0 miles NNE 4.6 mph - N/A   Partly Cloudy
2:27 AM 30.2°F 28.4°F 93% 30.66 in 4.0 miles NNE 6.9 mph - N/A Fog Patches of Fog
2:53 AM 30.0°F 28.0°F 92% 30.69 in 4.0 miles NE 6.9 mph - N/A Fog Patches of Fog
3:00 AM 28.4°F 26.6°F 93% 30.66 in 4.0 miles NE 5.8 mph - N/A Fog Patches of Fog
3:08 AM 28.4°F 26.6°F 93% 30.66 in 2.0 miles NE 4.6 mph - N/A Fog Patches of Fog
3:16 AM 28.4°F 24.8°F 86% 30.66 in 2.0 miles NE 5.8 mph - N/A Fog Patches of Fog
3:43 AM 28.4°F 26.6°F 93% 30.66 in 2.0 miles NE 4.6 mph - N/A Fog Patches of Fog
3:53 AM 28.0°F 25.0°F 88% 30.69 in 3.0 miles Calm Calm - N/A Fog Patches of Fog
4:16 AM 28.4°F 26.6°F 93% 30.65 in 2.0 miles Calm Calm - N/A Fog Patches of Fog
4:26 AM 28.4°F 26.6°F 93% 30.65 in 0.5 miles ENE 3.5 mph - N/A Fog Light Freezing Fog
4:41 AM 28.4°F 26.6°F 93% 30.65 in 0.2 miles ENE 5.8 mph - N/A Fog Light Freezing Fog
4:53 AM 28.0°F 26.1°F 92% 30.68 in 0.2 miles ENE 4.6 mph - N/A Fog Light Freezing Fog
5:27 AM 28.4°F 26.6°F 93% 30.64 in 0.2 miles ENE 4.6 mph - N/A Fog Light Freezing Fog
5:37 AM 28.4°F 26.6°F 93% 30.64 in 0.2 miles NE 5.8 mph - N/A Fog Light Freezing Fog
5:49 AM 28.4°F 26.6°F 93% 30.63 in 0.2 miles ENE 5.8 mph - N/A Fog Light Freezing Fog
5:53 AM 28.0°F 26.1°F 92% 30.67 in 0.2 miles ENE 5.8 mph - N/A Fog Light Freezing Fog
6:19 AM 28.4°F 26.6°F 93% 30.63 in 1.5 miles ENE 5.8 mph - N/A   Scattered Clouds
6:53 AM 28.9°F 26.1°F 89% 30.66 in 10.0 miles ENE 4.6 mph - N/A   Partly Cloudy
7:35 AM 26.6°F 24.8°F 93% 30.62 in 1.0 miles Calm Calm - N/A   Mostly Cloudy
7:49 AM 24.8°F 23.0°F 93% 30.63 in 10.0 miles Calm Calm - N/A Fog Patches of Fog
7:53 AM 25.0°F 23.0°F 92% 30.66 in 10.0 miles Calm Calm - N/A Fog Patches of Fog
8:53 AM 28.9°F 25.0°F 85% 30.66 in 1.0 miles Calm Calm - N/A   Scattered Clouds
9:13 AM 30.2°F 26.6°F 86% 30.63 in 0.5 miles Calm Calm - N/A Fog Light Freezing Fog
9:22 AM 30.2°F 26.6°F 86% 30.63 in 0.8 miles East 3.5 mph - N/A   Scattered Clouds
9:29 AM 30.2°F 26.6°F 86% 30.63 in 2.0 miles Calm Calm - N/A   Partly Cloudy
9:35 AM 30.2°F 28.4°F 93% 30.63 in 3.0 miles ESE 3.5 mph - N/A   Partly Cloudy
9:53 AM 33.1°F 28.9°F 85% 30.66 in 3.0 miles Calm Calm - N/A Fog Patches of Fog
10:53 AM 33.8°F 28.4°F 81% 30.62 in 7.0 miles Calm Calm - N/A Fog Patches of Fog
11:53 AM 39.2°F 32.0°F 75% 30.61 in 7.0 miles NNW 3.5 mph - N/A Fog Patches of Fog
12:53 PM 41.0°F 30.9°F 67% 30.63 in 10.0 miles North 6.9 mph - N/A   Partly Cloudy
1:53 PM 42.1°F 30.9°F 65% 30.61 in 10.0 miles Variable 4.6 mph - N/A   Partly Cloudy
2:53 PM 43.0°F 30.9°F 62% 30.60 in 10.0 miles Variable 5.8 mph - N/A   Partly Cloudy
3:53 PM 42.1°F 30.9°F 65% 30.59 in 10.0 miles North 3.5 mph - N/A   Clear
4:53 PM 37.9°F 28.9°F 70% 30.58 in 10.0 miles North 4.6 mph - N/A   Clear
5:53 PM 35.1°F 28.9°F 78% 30.58 in 10.0 miles NNW 6.9 mph - N/A   Clear
6:53 PM 35.1°F 28.9°F 78% 30.58 in 10.0 miles North 5.8 mph - N/A   Clear
7:53 PM 36.0°F 30.0°F 79% 30.57 in 10.0 miles NNE 4.6 mph - N/A   Clear
8:53 PM 34.0°F 28.9°F 82% 30.56 in 10.0 miles NNE 3.5 mph - N/A   Clear
9:53 PM 33.1°F 28.9°F 85% 30.55 in 10.0 miles NNE 3.5 mph - N/A   Clear
10:53 PM 34.0°F 30.0°F 85% 30.55 in 10.0 miles NNE 6.9 mph - N/A   Clear
11:53 PM 32.0°F 28.9°F 88% 30.54 in 7.0 miles NNE 3.5 mph - N/A   Clear
Moon Phase
Jan. 16 Jan. 18 Jan. 26 Feb. 03 Feb. 10
Sunrise:07:51 AM (PST) Moon Rise:10:03 AM (PST)1/16
Sunset:04:47 PM (PST) Moon Set:11:13 PM (PST)1/16

Copyright © 2014 The Weather Underground, Inc.